User: anonymous   Login
Location: ????
(30.2663°N, 31.2484°E)
Time: 09:04:38
(UTC+00:00)
Language:

Meteor 1-4 Rocket - Orbit

View from above orbital plane
View from above orbital plane
View from above satellite
View from above satellite

Ground track
Ground track

The orbit data is extracted from the following two-line orbital elements,

1 04394U 70037B   23032.51615411  .00010815  00000-0  28865-3 0  9998
2 04394  81.2394 112.6995 0031865 279.9200  79.8444 15.37455824879604
Epoch (UTC): 01 February 2023 12:23:15
Eccentricity: 0.0031865
inclination: 81.2394°
perigee height: 432 km
apogee height: 475 km
right ascension of ascending node: 112.6995°
argument of perigee: 279.9200°
revolutions per day: 15.37455824
mean anomaly at epoch: 79.8444°
orbit number at epoch: 87960

The dashed part of the orbit path shows where the satellite is in the earth's shadow,  

DLR